Change the Weather History Date:

Monday, September 9, 2013

  Actual Average Record
Temperature  
Mean Temperature 61 °F 64 °F  
Max Temperature 77 °F 74 °F 98 °F (1959)
Min Temperature 45 °F 54 °F 41 °F (1956)
Degree Days  
Heating Degree Days 4 3  
Month to date heating degree days 34 21  
Since 1 July heating degree days 52 55  
Cooling Degree Days 0 2  
Month to date cooling degree days 19 25  
Year to date cooling degree days 610 509  
Growing Degree Days 11 (Base 50)    
Moisture  
Dew Point 51 °F    
Average Humidity 71    
Maximum Humidity 93    
Minimum Humidity 48    
Precipitation  
Precipitation 0.00 in 0.11 in 2.08 in (2004)
Month to date precipitation 0.67 0.98  
Year to date precipitation 25.88 23.58  
Snow  
Snow 0.00 in 0.00 in 0.00 in ()
Month to date snowfall 0.0 0.0  
Since 1 July snowfall 0.0 0.0  
Since 1 September snowfall 0.0 0.0  
Snow Depth 0.00 in    
Sea Level Pressure  
Sea Level Pressure 30.10 in    
Wind  
Wind Speed 6 mph (SW)    
Max Wind Speed 17 mph    
Max Gust Speed 23 mph    
Visibility 10 miles    
Events      
T = Trace of Precipitation, MM = Missing Value Source: NWS Daily Summary

Daily Weather History Graph

Daily Weather History Graph

Search for Another Location

Airport or City:

Trip Planner

Search our weather history database for the weather conditions in past years. The results will help you decide how hot, cold, wet, or windy it might be!

Date:

Astronomy

Sep. 09, 2013 Rise Set
Actual Time 6:43 AM EDT 7:31 PM EDT
Civil Twilight 6:15 AM EDT 7:59 PM EDT
Nautical Twilight 5:40 AM EDT 8:33 PM EDT
Astronomical Twilight 5:05 AM EDT 9:09 PM EDT
Moon 11:11 AM EDT (9/9) 9:37 PM EDT (9/9)
Length of Visible Light 13h 44m
Length of Day
12h 47m
Waxing Crescent, 19% of the Moon is Illuminated
Sep 9
Waxing Crescent
Sep 12
First Quarter
Sep 19
Full
Sep 26
Last Quarter
Oct 4
New

Hourly Weather History & Observations

Time (EDT) Temp. Windchill Dew Point Humidity Pressure Visibility Wind Dir Wind Speed Gust Speed Precip Events Conditions
12:54 AM 48.9 °F - 46.0 °F 90% 30.15 in 10.0 mi SW 3.5 mph - N/A   Partly Cloudy
1:54 AM 48.0 °F - 46.0 °F 93% 30.16 in 10.0 mi Calm Calm - N/A   Partly Cloudy
2:54 AM 48.0 °F - 45.0 °F 89% 30.16 in 10.0 mi Calm Calm - N/A   Partly Cloudy
3:54 AM 46.9 °F - 45.0 °F 93% 30.17 in 10.0 mi Calm Calm - N/A   Partly Cloudy
4:54 AM 46.0 °F 44.8 °F 44.1 °F 93% 30.17 in 10.0 mi SW 3.5 mph - N/A   Partly Cloudy
5:54 AM 46.0 °F 44.8 °F 43.0 °F 89% 30.17 in 10.0 mi SW 3.5 mph - N/A   Scattered Clouds
6:54 AM 45.0 °F 42.6 °F 43.0 °F 93% 30.17 in 10.0 mi WSW 4.6 mph - N/A   Mostly Cloudy
7:54 AM 46.9 °F - 45.0 °F 93% 30.18 in 10.0 mi SW 5.8 mph - N/A   Overcast
8:54 AM 52.0 °F - 46.9 °F 83% 30.17 in 10.0 mi SSW 4.6 mph - N/A   Overcast
9:54 AM 55.9 °F - 46.9 °F 72% 30.16 in 10.0 mi SSW 6.9 mph - N/A   Overcast
10:54 AM 62.1 °F - 46.9 °F 58% 30.14 in 10.0 mi SSW 9.2 mph - N/A   Mostly Cloudy
11:54 AM 66.9 °F - 46.9 °F 49% 30.12 in 10.0 mi WSW 11.5 mph - N/A   Mostly Cloudy
12:54 PM 69.1 °F - 51.1 °F 53% 30.10 in 10.0 mi South 5.8 mph - N/A   Mostly Cloudy
1:54 PM 72.0 °F - 53.1 °F 51% 30.10 in 10.0 mi SW 6.9 mph - N/A   Mostly Cloudy
2:54 PM 73.9 °F - 55.0 °F 52% 30.06 in 10.0 mi ESE 3.5 mph - N/A   Mostly Cloudy
3:54 PM 75.0 °F - 57.0 °F 53% 30.04 in 10.0 mi SW 6.9 mph - N/A   Overcast
4:54 PM 75.0 °F - 57.0 °F 53% 30.04 in 10.0 mi Calm Calm - N/A   Overcast
5:54 PM 72.0 °F - 55.9 °F 57% 30.02 in 10.0 mi NNE 6.9 mph - N/A   Mostly Cloudy
6:54 PM 71.1 °F - 57.9 °F 63% 30.02 in 10.0 mi NE 3.5 mph - N/A   Mostly Cloudy
7:54 PM 69.1 °F - 60.1 °F 73% 30.01 in 10.0 mi Calm Calm - N/A   Overcast
8:54 PM 66.9 °F - 61.0 °F 81% 30.00 in 10.0 mi SSW 6.9 mph - N/A   Partly Cloudy
9:54 PM 69.1 °F - 60.1 °F 73% 30.01 in 10.0 mi SW 8.1 mph - N/A   Clear
10:54 PM 69.1 °F - 60.1 °F 73% 29.99 in 10.0 mi SW 12.7 mph 20.7 mph N/A   Mostly Cloudy
11:54 PM 68.0 °F - 60.1 °F 76% 29.99 in 10.0 mi SW 13.8 mph - N/A   Mostly Cloudy